Location: Gleizolles
(44.4833°N, 6.7667°E)
Time: 19:49:02
(UTC+00:00)

FALCON 9 DEB - Pass Details

Date: 09 April 2020
Orbit: 428 x 442 km, 53.0° (Epoch: 31 May)

Event Time Altitude Azimuth Distance (km) Brightness Sun altitude
Rises 19:26:01 0° 242° (WSW) 2,424 7.5 -13.5°
Reaches altitude 10° 19:28:08 10° 245° (WSW) 1,556 6.5 -13.9°
Maximum altitude 19:31:37 68° 328° (NNW) 481 3.5 -14.4°
Drops below altitude 10° 19:35:07 10° 53° (NE) 1,560 5.7 -15.0°
Enters shadow 19:35:18 - 53° (NE) 1,632 5.8 -15.0°
